Terug naar catalogus

NOAA 16 DEB

ActiefPO
NORAD 42402·DEBRIS·🇺🇸 United States

Gelanceerd Sep 21, 2000 vanaf Vandenberg Space Force Base

Loading…

Volgende Passages (komende 24 uur)

TLE

VersSource: Space-Track

Epoch: Sep 14, 2026, 09:57 UTC

1 42402U 00055SW  26257.41519551  .00002626  00000-0  75468-3 0  9994
2 42402  99.0192 125.5935 0026881 224.4029 135.5006 14.45554425549256

Volg NOAA 16 DEB in realtime met AllMySat

Download on the App Store